Weather History for KRND - December, 2013

Change the Weather History Date:

Wednesday, December 4, 2013

  Actual Average Record
Temperature  
Mean Temperature 63 °F -  
Max Temperature 75 °F 63 °F 78 °F (2010)
Min Temperature 51 °F 45 °F 26 °F (2006)
Degree Days  
Heating Degree Days 2    
Growing Degree Days 13 (Base 50)    
Moisture  
Dew Point 60 °F    
Average Humidity 90    
Maximum Humidity 100    
Minimum Humidity 63    
Precipitation  
Precipitation 0.00 in - - ()
Sea Level Pressure  
Sea Level Pressure 29.75 in    
Wind  
Wind Speed 4 mph (SSW)    
Max Wind Speed 12 mph    
Max Gust Speed -    
Visibility 6 miles    
Events Fog    
Averages and records for this station are not official NWS values.
T = Trace of Precipitation, MM = Missing Value Source: NWS Daily Summary

Daily Weather History Graph

Daily Weather History Graph

Search for Another Location

Airport or City:

Trip Planner

Search our weather history database for the weather conditions in past years. The results will help you decide how hot, cold, wet, or windy it might be!

Date:

Astronomy

Dec. 04, 2013 Rise Set
Actual Time 7:12 AM CST 5:33 PM CST
Civil Twilight 6:46 AM CST 5:59 PM CST
Nautical Twilight 6:17 AM CST 6:29 PM CST
Astronomical Twilight 5:48 AM CST 6:58 PM CST
Moon 8:45 AM CST (12/4) 7:42 PM CST (12/4)
Length of Visible Light 11h 13m
Length of Day
10h 21m
Waxing Crescent, 4% of the Moon is Illuminated
Dec 4
Waxing Crescent
Dec 9
First Quarter
Dec 17
Full
Dec 25
Last Quarter
Jan 1
New

Hourly Weather History & Observations

Time (CST) Temp. Dew Point Humidity Pressure Visibility Wind Dir Wind Speed Gust Speed Precip Events Conditions
12:58 AM 64.4 °F 56.7 °F 76% 29.68 in 10.0 mi SW 6.9 mph - N/A   Clear
1:58 AM 57.9 °F 52.3 °F 82% 29.68 in 10.0 mi Variable 1.2 mph - N/A   Clear
2:58 AM 54.7 °F 48.4 °F 79% 29.68 in 10.0 mi NNW 1.2 mph - N/A   Clear
3:58 AM 53.4 °F 48.2 °F 82% 29.69 in 10.0 mi NW 4.6 mph - N/A   Clear
4:54 AM 51.8 °F 48.2 °F 88% 29.71 in 10.0 mi NW 2.3 mph - N/A   Partly Cloudy
4:58 AM 51.8 °F 47.8 °F 86% 29.70 in 10.0 mi NW 2.3 mph - N/A   Partly Cloudy
5:13 AM 51.8 °F 48.2 °F 88% 29.71 in 10.0 mi NW 2.3 mph - N/A   Mostly Cloudy
5:53 AM 53.6 °F 50.0 °F 88% 29.72 in 10.0 mi Calm Calm - N/A   Overcast
5:58 AM 53.6 °F 50.0 °F 88% 29.71 in 4.0 mi ENE 1.2 mph - N/A   Overcast
6:03 AM 55.4 °F 51.8 °F 88% 29.72 in 0.2 mi Calm Calm - N/A Fog Fog
6:08 AM 55.4 °F 51.8 °F 88% 29.72 in 0.2 mi SSE 2.3 mph - N/A Fog Fog
6:58 AM 59.7 °F 58.1 °F 94% 29.73 in 0.1 mi South 5.8 mph - N/A Fog Fog
7:08 AM 60.8 °F 59.0 °F 94% 29.74 in 0.2 mi South 5.8 mph - N/A Fog Fog
7:58 AM 60.8 °F 59.4 °F 95% 29.75 in 0.1 mi South 4.6 mph - N/A Fog Fog
8:58 AM 62.2 °F 60.8 °F 95% 29.77 in 0.2 mi SSE 3.5 mph - N/A Fog Fog
9:23 AM 62.6 °F 62.6 °F 100% 29.78 in 0.2 mi South 5.8 mph - N/A Fog Fog
9:58 AM 64.0 °F 62.8 °F 96% 29.78 in 0.2 mi SSE 6.9 mph - N/A Fog Fog
10:18 AM 64.4 °F 62.6 °F 94% 29.79 in 0.2 mi SSE 8.1 mph - N/A Fog Fog
10:22 AM 64.4 °F 62.6 °F 94% 29.79 in 0.2 mi SSE 6.9 mph - N/A Fog Fog
10:28 AM 64.4 °F 62.6 °F 94% 29.80 in 0.2 mi SSE 6.9 mph - N/A Fog Fog
10:33 AM 64.4 °F 62.6 °F 94% 29.79 in 0.5 mi South 8.1 mph - N/A Fog Fog
10:39 AM 64.4 °F 62.6 °F 94% 29.80 in 0.8 mi South 8.1 mph - N/A Fog Fog
10:43 AM 64.4 °F 62.6 °F 94% 29.80 in 1.0 mi South 10.4 mph - N/A   Mist
10:48 AM 64.4 °F 64.4 °F 100% 29.79 in 1.5 mi South 8.1 mph - N/A   Overcast
10:58 AM 64.8 °F 63.7 °F 96% 29.78 in 2.0 mi South 9.2 mph - N/A   Overcast
11:43 AM 66.2 °F 64.4 °F 94% 29.78 in 3.0 mi SW 8.1 mph - N/A   Overcast
11:53 AM 66.2 °F 64.4 °F 94% 29.78 in 4.0 mi SSW 8.1 mph - N/A   Overcast
11:58 AM 65.8 °F 64.6 °F 96% 29.77 in 5.0 mi SSW 6.9 mph - N/A   Overcast
12:18 PM 68.0 °F 66.2 °F 94% 29.76 in 6.0 mi SSW 6.9 mph - N/A   Overcast
12:28 PM 68.0 °F 66.2 °F 94% 29.75 in 10.0 mi SSW 6.9 mph - N/A   Mostly Cloudy
12:58 PM 70.9 °F 67.5 °F 89% 29.72 in 10.0 mi South 9.2 mph - N/A   Mostly Cloudy
1:08 PM 71.6 °F 68.0 °F 88% 29.72 in 10.0 mi SSW 6.9 mph - N/A   Mostly Cloudy
1:58 PM 75.7 °F 62.4 °F 63% 29.70 in 10.0 mi SSW 11.5 mph - N/A   Clear
2:58 PM 74.5 °F 62.4 °F 66% 29.69 in 10.0 mi South 8.1 mph - N/A   Clear
3:58 PM 74.5 °F 62.8 °F 67% 29.70 in 10.0 mi SSW 3.5 mph - N/A   Clear
4:58 PM 73.6 °F 63.3 °F 70% 29.71 in 10.0 mi SSW 3.5 mph - N/A   Clear
5:58 PM 68.4 °F 62.8 °F 82% 29.73 in 9.0 mi SSE 3.5 mph - N/A   Clear
6:38 PM 66.2 °F 62.6 °F 88% 29.75 in 9.0 mi South 2.3 mph - N/A   Clear
6:53 PM 66.2 °F 62.6 °F 88% 29.75 in 10.0 mi NNW 1.2 mph - N/A   Clear
6:58 PM 65.7 °F 62.1 °F 88% 29.75 in 10.0 mi WNW 2.3 mph - N/A   Clear
7:53 PM 64.4 °F 60.8 °F 88% 29.77 in 8.0 mi South 2.3 mph - N/A   Clear
7:58 PM 64.0 °F 61.3 °F 91% 29.76 in 7.0 mi SSW 3.5 mph - N/A   Clear
8:13 PM 64.4 °F 62.6 °F 94% 29.77 in 10.0 mi South 4.6 mph - N/A   Clear
8:28 PM 62.6 °F 60.8 °F 94% 29.77 in 7.0 mi South 3.5 mph - N/A   Clear
8:33 PM 62.6 °F 60.8 °F 94% 29.78 in 6.0 mi WNW 1.2 mph - N/A   Clear
8:38 PM 62.6 °F 60.8 °F 94% 29.78 in 8.0 mi Calm Calm - N/A   Clear
8:58 PM 62.2 °F 59.7 °F 91% 29.77 in 9.0 mi NNW 4.6 mph - N/A   Clear
9:58 PM 60.8 °F 58.5 °F 92% 29.78 in 10.0 mi North 2.3 mph - N/A   Clear
10:08 PM 60.8 °F 59.0 °F 94% 29.80 in 9.0 mi North 1.2 mph - N/A   Clear
10:58 PM 59.9 °F 57.9 °F 93% 29.79 in 9.0 mi NNW 2.3 mph - N/A   Clear
11:21 PM 59.0 °F 57.2 °F 94% 29.80 in 8.0 mi Calm Calm - N/A   Clear
11:22 PM 59.0 °F 57.2 °F 94% 29.80 in 8.0 mi Calm Calm - N/A   Partly Cloudy
11:37 PM 60.8 °F 59.0 °F 94% 29.80 in 6.0 mi Calm Calm - N/A   Mostly Cloudy
11:52 PM 59.0 °F 57.2 °F 94% 29.80 in 8.0 mi North 2.3 mph - N/A   Overcast
11:58 PM 59.9 °F 58.1 °F 94% 29.79 in 8.0 mi Calm Calm - N/A   Overcast